Weather in Kardailovo

Russia / Orenburg Oblast     51°32′12″N   53°54′24″E
temp.,
°C
wind,
m/s
gust,
m/s
humid.,
%
clouds,
%
prec.,
mm/h
press.,
hPa
HPBL,
m
5 march, fri
fri523:000wsw111691100 1.4 1008953
02:00−2sw101979100 0.1 1008697
05:00−3sw9188297 0.1 1008598
08:00−3sw9178496 0.0 1008546
11:00−1sw10178997 0.0 1007694
14:000sw111998100 1.3 1006916
17:00+1sw91698100 3.9 1007717
20:00+1wsw61299100 0.6 1008523
6 march, sat
sat623:00+1w61198100 2.3 1011554
02:00−1w4797100 0.4 1011323
05:00−6nnw2391100 0.5 101423
08:00−10nnw229077 0.0 101421
11:00−6nnw118754 0.0 101659
14:00−4w118499 0.0 1016259
17:00−4sw009099 0.0 1015145
20:00−6ese1192100 0.0 101521
7 march, sun
sun723:00−6ene2394100 0.1 101361
02:00−6ne4796100 1.1 1010221
05:00−6ne6996100 2.8 1008351
08:00−7nne71295100 3.1 1005501
11:00−7n81394100 5.6 1007605
14:00−7nnw71178100 0.7 1009701
17:00−8nw598150 0.7 1013528
20:00−13w44900 0.0 101557
8 march, mon
mon823:00−15wsw44940 0.0 101657
02:00−16ssw44951 0.0 101565
05:00−10ssw7139450 0.1 1013416
08:00−7ssw91691100 0.2 1011748
11:00−4sw101694100 0.8 1010860
14:00−2sw91393100 0.8 1011953
17:00−2sw71194100 1.2 1011902
20:00−2ssw81494100 0.5 1010785
9 march, tue
tue923:00−1ssw111792100 0.9 1008983
02:00−1sw121995100 0.4 10061155
05:00−6w101771100 1.6 1009910
08:00−13wsw6138716 0.0 1013286
11:00−11wsw510899 0.0 1015361
14:00−8wsw58877 0.0 1016442
17:00−8sw368948 0.0 1016353
20:00−11ssw3391100 0.0 101642